Weather History for KPEQ - January, 2013

Change the Weather History Date:

Saturday, January 12, 2013

  Actual Average Record
Temperature  
Mean Temperature 40 °F -  
Max Temperature 49 °F 58 °F 86 °F (1914)
Min Temperature 32 °F 26 °F -4 °F (1962)
Degree Days  
Heating Degree Days 24    
Moisture  
Dew Point 25 °F    
Average Humidity 57    
Maximum Humidity 85    
Minimum Humidity 26    
Precipitation  
Precipitation 0.01 in - - ()
Sea Level Pressure  
Sea Level Pressure 29.91 in    
Wind  
Wind Speed 6 mph (WNW)    
Max Wind Speed 20 mph    
Max Gust Speed 26 mph    
Visibility 10 miles    
Events      
Averages and records for this station are not official NWS values.
T = Trace of Precipitation, MM = Missing Value Source: NWS Daily Summary

Daily Weather History Graph

Daily Weather History Graph

Search for Another Location

Airport or City:

Trip Planner

Search our weather history database for the weather conditions in past years. The results will help you decide how hot, cold, wet, or windy it might be!

Date:

Astronomy

Jan. 12, 2013 Rise Set
Actual Time 7:53 AM CST 6:11 PM CST
Civil Twilight 7:27 AM CST 6:37 PM CST
Nautical Twilight 6:57 AM CST 7:07 PM CST
Astronomical Twilight 6:28 AM CST 7:36 PM CST
Moon 8:20 AM CST (1/12) 7:35 PM CST (1/12)
Length of Visible Light 11h 10m
Length of Day
10h 17m
New Moon, 1% of the Moon is Illuminated
Jan 12
New Moon
Jan 18
First Quarter
Jan 26
Full
Feb 3
Last Quarter
Feb 10
New

Hourly Weather History & Observations

Time (CST) Temp. Windchill Dew Point Humidity Pressure Visibility Wind Dir Wind Speed Gust Speed Precip Events Conditions
12:15 AM 41.5 °F - 36.1 °F 81% 29.86 in 10.0 mi Calm Calm - N/A   Clear
12:35 AM 41.2 °F - 36.3 °F 83% 29.85 in 10.0 mi Calm Calm - N/A   Clear
12:55 AM 41.2 °F - 36.7 °F 84% 29.86 in 10.0 mi Calm Calm - N/A   Clear
1:15 AM 41.5 °F - 36.5 °F 82% 29.86 in 10.0 mi Calm Calm - 0.01 in   Clear
1:35 AM 41.2 °F - 36.5 °F 83% 29.86 in 10.0 mi Calm Calm - 0.01 in   Clear
1:55 AM 41.2 °F - 36.9 °F 85% 29.86 in 10.0 mi Calm Calm - 0.01 in   Clear
2:15 AM 41.2 °F - 36.9 °F 85% 29.86 in 10.0 mi Calm Calm - N/A   Clear
2:35 AM 41.5 °F - 37.4 °F 85% 29.87 in 10.0 mi Calm Calm - N/A   Clear
2:55 AM 41.4 °F 38.4 °F 37.0 °F 85% 29.87 in 10.0 mi NW 4.6 mph - N/A   Clear
3:15 AM 41.5 °F 36.4 °F 37.0 °F 84% 29.86 in 10.0 mi NW 8.1 mph - N/A   Clear
3:35 AM 41.2 °F 36.0 °F 36.5 °F 83% 29.87 in 10.0 mi West 8.1 mph - N/A   Clear
3:55 AM 41.2 °F 35.0 °F 35.6 °F 81% 29.88 in 10.0 mi NW 10.4 mph - N/A   Clear
4:15 AM 41.0 °F 34.7 °F 31.3 °F 68% 29.88 in 10.0 mi NNW 10.4 mph - N/A   Clear
4:35 AM 40.3 °F 35.5 °F 29.8 °F 66% 29.88 in 10.0 mi NNW 6.9 mph - N/A   Clear
4:55 AM 39.4 °F 34.5 °F 30.0 °F 69% 29.87 in 10.0 mi NW 6.9 mph - N/A   Clear
5:15 AM 38.3 °F 33.2 °F 30.0 °F 72% 29.88 in 10.0 mi NW 6.9 mph - N/A   Clear
5:35 AM 37.8 °F 31.8 °F 28.6 °F 69% 29.88 in 10.0 mi NNW 8.1 mph - N/A   Clear
5:55 AM 39.2 °F 33.6 °F 23.0 °F 52% 29.89 in 10.0 mi North 8.1 mph - N/A   Clear
6:15 AM 37.6 °F 34.0 °F 24.6 °F 60% 29.90 in 10.0 mi NNW 4.6 mph - N/A   Clear
6:35 AM 37.6 °F 33.1 °F 23.7 °F 57% 29.90 in 10.0 mi NNW 5.8 mph - N/A   Clear
6:55 AM 35.8 °F 30.1 °F 26.1 °F 68% 29.91 in 10.0 mi WNW 6.9 mph - N/A   Clear
7:15 AM 34.7 °F 27.5 °F 26.6 °F 72% 29.91 in 10.0 mi WNW 9.2 mph - N/A   Clear
7:35 AM 33.8 °F 27.0 °F 25.7 °F 72% 29.92 in 10.0 mi WNW 8.1 mph - N/A   Clear
7:55 AM 33.3 °F 25.7 °F 24.6 °F 71% 29.92 in 10.0 mi WNW 9.2 mph - N/A   Clear
8:15 AM 32.9 °F 24.7 °F 23.5 °F 68% 29.94 in 10.0 mi West 10.4 mph - N/A   Clear
8:35 AM 32.4 °F 26.0 °F 23.4 °F 69% 29.93 in 10.0 mi West 6.9 mph - N/A   Clear
8:55 AM 32.2 °F 25.0 °F 24.3 °F 73% 29.95 in 10.0 mi West 8.1 mph - N/A   Clear
9:15 AM 34.9 °F 26.6 °F 21.7 °F 59% 29.96 in 10.0 mi WNW 11.5 mph - N/A   Clear
9:35 AM 37.0 °F 27.4 °F 18.7 °F 48% 29.97 in 10.0 mi NW 17.3 mph 23.0 mph N/A   Clear
9:55 AM 38.3 °F 28.4 °F 18.0 °F 44% 29.97 in 10.0 mi NW 19.6 mph 26.5 mph N/A   Clear
10:15 AM 39.2 °F 29.8 °F 17.8 °F 42% 29.97 in 10.0 mi NW 18.4 mph - N/A   Clear
10:35 AM 40.3 °F 31.9 °F 19.4 °F 43% 29.97 in 10.0 mi NW 16.1 mph - N/A   Clear
10:55 AM 41.0 °F 32.5 °F 18.5 °F 40% 29.97 in 10.0 mi NW 17.3 mph - N/A   Clear
11:15 AM 41.9 °F 34.3 °F 19.6 °F 41% 29.97 in 10.0 mi NW 15.0 mph - N/A   Clear
11:55 AM 43.0 °F 35.1 °F 17.4 °F 36% 29.97 in 10.0 mi WNW 17.3 mph - N/A   Clear
12:15 PM 43.7 °F 36.0 °F 19.0 °F 37% 29.96 in 10.0 mi WNW 17.3 mph - N/A   Clear
12:35 PM 44.1 °F 36.2 °F 19.4 °F 37% 29.95 in 10.0 mi WNW 18.4 mph - N/A   Clear
12:55 PM 44.6 °F 37.2 °F 18.9 °F 36% 29.93 in 10.0 mi WNW 17.3 mph - N/A   Clear
1:35 PM 46.6 °F - 19.0 °F 33% 29.90 in 10.0 mi NNW 12.7 mph - N/A   Clear
1:55 PM 46.8 °F - 17.4 °F 31% 29.89 in 10.0 mi NW 12.7 mph - N/A   Clear
2:15 PM 47.3 °F - 17.4 °F 30% 29.88 in 10.0 mi NW 9.2 mph - N/A   Clear
2:35 PM 47.8 °F - 16.3 °F 28% 29.88 in 10.0 mi North 6.9 mph - N/A   Clear
2:55 PM 48.4 °F - 15.1 °F 26% 29.88 in 10.0 mi WNW 4.6 mph - N/A   Clear
3:15 PM 48.7 °F - 17.1 °F 28% 29.88 in 10.0 mi West 9.2 mph - N/A   Clear
3:35 PM 48.9 °F - 17.1 °F 28% 29.87 in 10.0 mi NW 8.1 mph - N/A   Clear
3:55 PM 49.3 °F - 18.3 °F 29% 29.88 in 10.0 mi NNW 6.9 mph - N/A   Clear
4:15 PM 49.3 °F - 17.4 °F 28% 29.88 in 10.0 mi NW 3.5 mph - N/A   Clear
4:35 PM 49.3 °F - 18.0 °F 29% 29.88 in 10.0 mi NW 6.9 mph - N/A   Clear
4:55 PM 49.3 °F - 18.1 °F 29% 29.88 in 10.0 mi NW 5.8 mph - N/A   Clear
5:15 PM 49.1 °F - 20.7 °F 33% 29.86 in 10.0 mi NW 8.1 mph - N/A   Clear
5:35 PM 48.2 °F - 22.1 °F 36% 29.85 in 10.0 mi NNW 6.9 mph - N/A   Clear
5:55 PM 47.5 °F - 21.4 °F 36% 29.85 in 10.0 mi North 5.8 mph - N/A   Clear
6:15 PM 45.1 °F 43.7 °F 25.0 °F 45% 29.86 in 10.0 mi NNW 3.5 mph - N/A   Clear
6:35 PM 44.2 °F 42.7 °F 25.2 °F 47% 29.88 in 10.0 mi NW 3.5 mph - N/A   Clear
6:55 PM 42.1 °F - 26.2 °F 53% 29.88 in 10.0 mi Calm Calm - N/A   Clear
7:15 PM 41.9 °F - 27.0 °F 55% 29.90 in 10.0 mi Calm Calm - N/A   Clear
7:35 PM 38.1 °F 34.6 °F 27.7 °F 66% 29.91 in 10.0 mi WSW 4.6 mph - N/A   Clear
7:55 PM 36.5 °F 30.3 °F 27.5 °F 70% 29.91 in 10.0 mi West 8.1 mph - N/A   Clear
8:15 PM 36.0 °F 29.6 °F 27.5 °F 71% 29.92 in 10.0 mi West 8.1 mph - N/A   Clear
8:35 PM 34.3 °F 26.5 °F 27.5 °F 76% 29.93 in 10.0 mi West 10.4 mph - N/A   Clear
8:55 PM 36.9 °F 30.1 °F 24.6 °F 61% 29.95 in 10.0 mi WSW 9.2 mph - N/A   Clear
9:15 PM 36.5 °F 29.7 °F 23.7 °F 60% 29.95 in 10.0 mi WSW 9.2 mph - N/A   Clear
9:35 PM 35.2 °F 28.1 °F 23.5 °F 62% 29.97 in 10.0 mi WSW 9.2 mph - N/A   Clear
9:55 PM 35.6 °F 28.0 °F 22.8 °F 60% 29.98 in 10.0 mi West 10.4 mph - N/A   Clear
10:15 PM 35.4 °F 27.8 °F 22.5 °F 59% 29.99 in 10.0 mi West 10.4 mph - N/A   Clear
10:35 PM 36.0 °F 28.0 °F 21.2 °F 55% 30.00 in 10.0 mi West 11.5 mph - N/A   Clear
10:55 PM 34.0 °F 28.0 °F 22.1 °F 62% 30.02 in 10.0 mi WNW 6.9 mph - N/A   Clear
11:15 PM 33.4 °F 29.1 °F 21.9 °F 63% 30.02 in 10.0 mi West 4.6 mph - N/A   Clear
11:35 PM 34.3 °F 30.2 °F 20.3 °F 57% 30.03 in 10.0 mi West 4.6 mph - N/A   Clear
11:55 PM 35.4 °F 29.7 °F 19.6 °F 53% 30.03 in 10.0 mi West 6.9 mph - N/A   Clear